Preview of NWS' New Version of Forecast
This preview is not operational and should not be used for support decisions.

Regional Weather Roundup (RWR)

Issued by National Weather Service (NWS)

                            
000
ASUS43 KLSX 182357
RWRMO 

WEATHER SUMMARY FOR MISSOURI
NATIONAL WEATHER SERVICE SPRINGFIELD MO
700 PM CDT SAT MAY 18 2019

NOTE: "FAIR" INDICATES FEW OR NO CLOUDS BELOW 12,000 FEET WITH NO
       SIGNIFICANT WEATHER AND/OR OBSTRUCTIONS TO VISIBILITY.
       CURRENT SKY AND/OR WEATHER CONDITIONS ARE NOT AVAILABLE FOR
       CHILLICOTHE AND FARMINGTON.

MOZ001>031-035>038-043-044-053-054-190100-
...NORTHERN AND WESTERN MISSOURI...
  
CITY           SKY/WX    TMP DP  RH WIND       PRES   REMARKS
KANSAS CTY INT CLOUDY    64  62  93 SW7       29.62R                  
6HR MIN TEMP:  63; 6HR MAX TEMP:  69; 6HR PCP:  1.77;                

KANSAS C DTWN  CLOUDY    66  63  88 SW8       29.61R                  
LEE'S SUMMIT   LGT RAIN  64  61  90 SW6       29.62R                  
6HR MIN TEMP:  63; 6HR MAX TEMP:  70; 6HR PCP:  0.64;                

ST JOSEPH      LGT RAIN  64  64 100 SW6       29.59R                  
6HR MIN TEMP:  63; 6HR MAX TEMP:  70; 6HR PCP:  0.39;                

CHILLICOTHE      N/A     67  64  90 CALM      29.56F                  
6HR MIN TEMP:  65; 6HR MAX TEMP:  75; 6HR PCP:  1.51;                

KIRKSVILLE       N/A     64  32  30 N7        29.63R THUNDER          
     
$$
MOZ066>068-077>081-088>096-101>105-190100-
...SOUTHWEST MISSOURI...
  
CITY           SKY/WX    TMP DP  RH WIND       PRES   REMARKS
SPRINGFIELD    CLOUDY    63  59  87 S13       29.62F                  
6HR MIN TEMP:  63; 6HR MAX TEMP:  79; 6HR PCP:  0.30;                

BRANSON        LGT RAIN  61  59  94 S14G23    29.71F                  
               
$$
MOZ032>034-039>042-045>050-055>058-069>072-190100-
...CENTRAL MISSOURI...  
  
CITY           SKY/WX    TMP DP  RH WIND       PRES   REMARKS
COLUMBIA       CLOUDY    66  62  87 SW5       29.63F                  
JEFFERSON CITY LGT RAIN  66  62  87 SE3       29.64F                  
6HR MIN TEMP:  65; 6HR MAX TEMP:  85;                                

ROLLA          LGT RAIN  62  59  90 SE6       29.70F                  
6HR MIN TEMP:  62; 6HR MAX TEMP:  82; 6HR PCP:  0.25;                

SEDALIA        CLOUDY    61  61 100 W9        29.62F                  
6HR MIN TEMP:  61; 6HR MAX TEMP:  74; 6HR PCP:  0.29;                

WARRENSBURG    CLOUDY    63  63 100 S5        29.60R                  
OSAGE BEACH    LGT RAIN  63  63 100 SE6       29.65F                  
               
$$
MOZ051-052-059>065-190100-
...EAST CENTRAL MISSOURI...
  
CITY           SKY/WX    TMP DP  RH WIND       PRES   REMARKS
ST LOUIS INTL  CLOUDY    83  55  38 S16       29.68F                  
6HR MIN TEMP:  83; 6HR MAX TEMP:  88;                                

                   
$$
MOZ072>076-082>087-097>100-106>115-190100-
...SOUTH CENTRAL AND SOUTHEAST MISSOURI...
  
CITY           SKY/WX    TMP DP  RH WIND       PRES   REMARKS
CAPE GIRARDEAU FAIR      82  56  40 S14G28    29.75F                  
6HR MIN TEMP:  82; 6HR MAX TEMP:  86;                                

POPLAR BLUFF   FAIR      82  61  48 S12       29.73F                  
6HR MIN TEMP:  82; 6HR MAX TEMP:  87;                                

WEST PLAINS    CLOUDY    62  60  93 E5        29.75F                  
6HR MIN TEMP:  62; 6HR MAX TEMP:  80; 6HR PCP:  0.53;                

                                       
$$